TimeMST,TemperatureF,Dew PointF,Humidity,Sea Level PressureIn,VisibilityMPH,Wind Direction,Wind SpeedMPH,Gust SpeedMPH,PrecipitationIn,Events,Conditions,WindDirDegrees,DateUTC
12:51 AM,66.9,39.9,37,29.72,10.0,East,6.9,-,N/A,,Clear,80,2013-03-17 07:51:00
1:51 AM,66.0,39.0,37,29.72,10.0,East,10.4,-,N/A,,Clear,90,2013-03-17 08:51:00
2:51 AM,63.0,39.0,41,29.72,10.0,East,8.1,-,N/A,,Clear,80,2013-03-17 09:51:00
3:51 AM,62.1,37.9,41,29.71,10.0,East,8.1,-,N/A,,Clear,80,2013-03-17 10:51:00
4:51 AM,61.0,36.0,39,29.72,10.0,East,6.9,-,N/A,,Clear,80,2013-03-17 11:51:00
5:51 AM,60.1,37.9,44,29.74,10.0,East,8.1,-,N/A,,Partly Cloudy,80,2013-03-17 12:51:00
6:51 AM,59.0,39.0,48,29.76,10.0,East,6.9,-,N/A,,Partly Cloudy,90,2013-03-17 13:51:00
7:51 AM,62.1,37.9,41,29.78,10.0,East,9.2,-,N/A,,Partly Cloudy,90,2013-03-17 14:51:00
8:51 AM,68.0,36.0,31,29.81,10.0,East,4.6,-,N/A,,Partly Cloudy,100,2013-03-17 15:51:00
9:51 AM,73.0,30.0,20,29.82,10.0,Calm,Calm,-,N/A,,Partly Cloudy,0,2013-03-17 16:51:00
10:51 AM,77.0,28.0,17,29.81,10.0,SW,5.8,-,N/A,,Clear,220,2013-03-17 17:51:00
11:51 AM,78.8,23.0,13,29.85,10.0,West,12.7,17.3,N/A,,Clear,260,2013-03-17 18:51:00
12:51 PM,80.1,23.0,12,29.78,10.0,WSW,8.1,-,N/A,,Clear,250,2013-03-17 19:51:00
1:51 PM,82.9,19.0,9,29.76,10.0,WSW,8.1,-,N/A,,Clear,240,2013-03-17 20:51:00
2:51 PM,82.9,19.9,10,29.75,10.0,West,6.9,16.1,N/A,,Partly Cloudy,280,2013-03-17 21:51:00
3:51 PM,84.9,19.0,9,29.73,10.0,West,10.4,-,N/A,,Scattered Clouds,260,2013-03-17 22:51:00
4:51 PM,86.0,8.1,5,29.72,10.0,WSW,12.7,17.3,N/A,,Mostly Cloudy,240,2013-03-17 23:51:00
5:51 PM,84.0,16.0,8,29.73,10.0,SW,10.4,-,N/A,,Scattered Clouds,230,2013-03-18 00:51:00
6:51 PM,82.0,19.0,10,29.74,10.0,WSW,6.9,-,N/A,,Partly Cloudy,250,2013-03-18 01:51:00
7:51 PM,75.9,24.1,15,29.76,10.0,SW,6.9,-,N/A,,Partly Cloudy,230,2013-03-18 02:51:00
8:51 PM,77.0,16.0,10,29.77,10.0,West,6.9,-,N/A,,Partly Cloudy,260,2013-03-18 03:51:00
9:51 PM,73.0,18.0,12,29.78,10.0,South,4.6,-,N/A,,Partly Cloudy,190,2013-03-18 04:51:00
10:51 PM,75.0,9.0,8,29.79,10.0,WNW,6.9,-,N/A,,Partly Cloudy,290,2013-03-18 05:51:00
11:51 PM,69.1,19.9,15,29.80,10.0,SW,3.5,-,N/A,,Partly Cloudy,230,2013-03-18 06:51:00